Regional Weather Roundup
Issued by NWS

Home | Current Version | Previous Version | Graphics & Text | Print | Product List | Glossary On
Versions: 1 2 3 4 5 6 7 8 9 10 11 12 13 14 15 16 17 18 19 20 21 22 23 24 25 26 27 28 29 30 31 32 33 34 35 36 37 38 39 40 41 42 43 44 45 46 47 48 49 50
000
ASUS43 KIND 061859
RWRIN

WEATHER ROUNDUP FOR INDIANA
NATIONAL WEATHER SERVICE INDIANAPOLIS IN
200 PM EST FRI MAR 06 2015

NOTE: "FAIR" INDICATES FEW OR NO CLOUDS BELOW 12,000 FEET WITH NO
SIGNIFICANT WEATHER AND/OR OBSTRUCTIONS TO VISIBILITY.

* - STATION DOES NOT REPORT WEATHER SUCH AS PRECIPITATION OR FOG.

+ - STATION NOT QUALITY CONTROLLED BY THE NATIONAL WEATHER SERVICE.
    USE DATA WITH CAUTION...ESPECIALLY DEWPOINT AND RELATIVE
    HUMIDITY OBSERVATIONS.

INZ001>003-010>013-019-020-062000-
NORTHWEST INDIANA

CITY           SKY/WX    TMP DP  RH WIND       PRES   REMARKS
GARY /AIRPORT/ MOSUNNY   25   5  42 S12G29    30.32F WCI  14
VALPARAISO     NOT AVBL

$$

LMZ046-743>745-062000-
SOUTHERN LAKE MICHIGAN

STATION/POSITION TIME  TEMP WIND        PRES
                       AIR  DIR/SP/G
                 (UTC) (F)  (DEG/KT/KT) (MB)
MICHIGAN CITY    1800   17  170/ 18/ 23   N/A

$$

INZ004-005-014>016-021>024-062000-
NORTH CENTRAL INDIANA

CITY           SKY/WX    TMP DP  RH WIND       PRES   REMARKS
ELKHART        SUNNY     19   1  45 SW9       30.36F WCI   9
GOSHEN         SUNNY     19   5  54 S17       30.36F WCI   4
SOUTH BEND     SUNNY     21   7  54 S17       30.33F WCI   7

$$

INZ006>009-017-018-025>027-062000-
NORTHEAST INDIANA

CITY           SKY/WX    TMP DP  RH WIND       PRES   REMARKS
ANGOLA *+      SUNNY     18   1  49 SW10      30.35F WCI   6
FORT WAYNE     MOSUNNY   20   9  62 SW16      30.40F WCI   6

$$

INZ028-029-035-036-043>045-051>053-062000-
WEST CENTRAL INDIANA

CITY           SKY/WX    TMP DP  RH WIND       PRES   REMARKS
CRAWFORDSVL +  SUNNY     22   4  44 S15       30.40F WCI   9
GREENCASTLE +  SUNNY     28   3  34 S8        30.42F WCI  20
LAFAYETTE      PTSUNNY   23   6  48 S15G22    30.39F WCI  10
TERRE HAUTE    SUNNY     24   6  46 S17       30.44F WCI  11

$$

INZ030>032-037>040-046>048-054>057-064-065-062000-
CENTRAL INDIANA

CITY           SKY/WX    TMP DP  RH WIND       PRES   REMARKS
ANDERSON       SUNNY     18   9  68 S12G23    30.43  WCI   5
COLUMBUS       SUNNY     25   7  46 S16       30.47F WCI  12
GREENWOOD *+   SUNNY     27   5  39 SW15      30.43F WCI  15
INDIANAPOLIS   MOSUNNY   26   8  46 S15       30.40F WCI  14
-EAGLE CREEK   SUNNY     26   9  48 S8        30.41F WCI  18
KOKOMO *+        N/A    N/A N/A N/A MISG        N/A
MT COMFORT *+  SUNNY     25   3  39 S12       30.42F WCI  14
SHELBYVILLE    SUNNY     25  11  55 S16       30.43F WCI  12

$$

INZ033-034-041-042-049-050-058-059-062000-
EAST CENTRAL INDIANA

CITY           SKY/WX    TMP DP  RH WIND       PRES   REMARKS
MUNCIE         SUNNY     23   8  52 SW15      30.40F WCI  10

$$

INZ060-061-067>069-081>083-085>088-062000-
SOUTHWEST INDIANA

CITY           SKY/WX    TMP DP  RH WIND       PRES   REMARKS
EVANSVILLE     SUNNY     24   8  50 SW13      30.52F WCI  12
HUNTINGBURG *+ SUNNY     25  10  54 S12       30.51F WCI  14

$$

INZ062-063-066-070>080-084-089>092-062000-
SOUTH CENTRAL AND SOUTHEAST INDIANA

CITY           SKY/WX    TMP DP  RH WIND       PRES   REMARKS
BLOOMINGTON    SUNNY     27   9  46 SW9       30.44F WCI  18
SEYMOUR +      SUNNY     28  10  47 SW9       30.48F WCI  20

$$



USA.gov is the U.S. government's official web portal to all federal, state and local government web resources and services.